Change the Weather History Date:

Monday, September 1, 2014

  Actual Average Record
Temperature  
Mean Temperature 70 °F -  
Max Temperature 82 °F 75 °F 99 °F (1932)
Min Temperature 59 °F 52 °F 37 °F (1991)
Cooling Degree Days 5    
Growing Degree Days 20 (Base 50)    
Moisture  
Dew Point 66 °F    
Average Humidity 85    
Maximum Humidity 100    
Minimum Humidity 67    
Precipitation  
Precipitation 0.00 in - - ()
Sea Level Pressure  
Sea Level Pressure 29.99 in    
Wind  
Wind Speed 2 mph (South)    
Max Wind Speed 8 mph    
Max Gust Speed -    
Visibility 8 miles    
Events Fog    
Averages and records for this station are not official NWS values.
T = Trace of Precipitation, MM = Missing Value Source: NWS Daily Summary

Daily Weather History Graph

Daily Weather History Graph

Search for Another Location

Airport or City:

Trip Planner

Search our weather history database for the weather conditions in past years. The results will help you decide how hot, cold, wet, or windy it might be!

Date:

Astronomy

Sep. 01, 2014 Rise Set
Actual Time 6:30 AM EDT 7:39 PM EDT
Civil Twilight 6:01 AM EDT 8:08 PM EDT
Nautical Twilight 5:27 AM EDT 8:43 PM EDT
Astronomical Twilight 4:50 AM EDT 9:19 PM EDT
Moon 1:22 PM EDT (9/1) 11:30 PM EDT (9/1)
Length of Visible Light 14h 07m
Length of Day
13h 09m
Waxing Crescent, 42% of the Moon is Illuminated
Sep 1
Waxing Crescent
Sep 2
First Quarter
Sep 8
Full
Sep 15
Last Quarter
Sep 24
New

Hourly Weather History & Observations

Time (EDT) Temp. Heat Index Dew Point Humidity Pressure Visibility Wind Dir Wind Speed Gust Speed Precip Events Conditions
12:42 AM 69.8 °F - 66.2 °F 88% 30.02 in 10.0 mi Calm Calm - N/A   Scattered Clouds
12:56 AM 68.0 °F - 65.8 °F 93% 30.01 in 10.0 mi Calm Calm - N/A   Clear
3:56 AM 63.0 °F - 63.0 °F 100% 30.01 in 6.0 mi East 3.5 mph - N/A   Clear
5:56 AM 61.0 °F - 59.9 °F 96% 30.03 in 1.8 mi Calm Calm - N/A   Mostly Cloudy
6:04 AM 60.8 °F - 60.8 °F 100% 30.04 in 1.0 mi Calm Calm - N/A   Mist
6:17 AM 60.8 °F - 60.8 °F 100% 30.05 in 1.2 mi Calm Calm - N/A   Mostly Cloudy
6:21 AM 60.8 °F - 60.8 °F 100% 30.05 in 1.0 mi Calm Calm - N/A   Clear
6:29 AM 60.8 °F - 60.8 °F 100% 30.05 in 9.0 mi Calm Calm - N/A Fog Patches of Fog
6:56 AM 59.9 °F - 59.9 °F 100% 30.04 in 10.0 mi Calm Calm - N/A Fog Patches of Fog
8:56 AM 70.9 °F - 68.0 °F 91% 30.01 in 10.0 mi Calm Calm - N/A   Scattered Clouds
9:56 AM 77.0 °F - 68.0 °F 74% 30.01 in 10.0 mi Calm Calm - N/A   Scattered Clouds
10:56 AM 77.9 °F - 68.9 °F 74% 30.01 in 10.0 mi South 4.6 mph - N/A   Mostly Cloudy
12:15 PM 80.6 °F 83.9 °F 69.8 °F 70% 30.02 in 10.0 mi SW 4.6 mph - N/A   Mostly Cloudy
12:56 PM 79.9 °F - 68.9 °F 69% 29.99 in 10.0 mi South 6.9 mph - N/A   Mostly Cloudy
1:56 PM 81.9 °F 85.6 °F 70.0 °F 67% 29.98 in 10.0 mi South 8.1 mph - N/A   Mostly Cloudy
4:56 PM 81.9 °F 85.6 °F 70.0 °F 67% 29.93 in 10.0 mi South 8.1 mph - N/A   Scattered Clouds
5:56 PM 81.0 °F 84.7 °F 70.9 °F 71% 29.93 in 10.0 mi SSE 6.9 mph - N/A   Scattered Clouds
6:56 PM 79.0 °F - 70.0 °F 74% 29.91 in 10.0 mi SSE 6.9 mph - N/A   Partly Cloudy
7:56 PM 75.9 °F - 68.9 °F 79% 29.91 in 10.0 mi South 8.1 mph - N/A   Clear
8:56 PM 72.9 °F - 68.9 °F 87% 29.94 in 10.0 mi South 6.9 mph - N/A   Partly Cloudy
10:56 PM 72.9 °F - 68.9 °F 87% 29.93 in 10.0 mi South 3.5 mph - N/A   Clear
11:56 PM 72.0 °F - 68.0 °F 87% 29.92 in 10.0 mi South 6.9 mph - N/A   Clear